FENGYUN 1C DEB

Satellite information

Favourite Embed

Satellite Type and Status

DEBRISIN ORBIT

Key statistics

Satellite FENGYUN 1C DEB at a glance.

Uptime

9555

Days in orbit

Revolutions

≈ 14.2

Per day

Orbit

SSO

Sun Synchronous Orbit

Inclination

98.7

Latest

Satellite identification and parameters

Extended collection of information and parameters for FENGYUN 1C DEB.

Object identification

Identified? True

Debris? True

Object name: FENGYUN 1C DEB

International designator: 1999-025EYJ

Object number (NORAD): 41831

Object ID (CCSDS): 41831

Country: PEOPLES REPUBLIC OF CHINA (PRC)

Current information (Y/N): Y

RCS size: SMALL

Orbital parameters

Period: 101.173 minutes

Inclination: 98.745 deg

SMA: 7192.346 km

Apoapsis: 853.071 km

Periapsis: 775.352 km

RAAN: 255.2365 deg

Eccentricy: 0.0054029

Argument of periapsis: 324.6076 deg

Mean anomaly: 35.1521 deg

Mean motion: 14.23301352 rev/day

Mean motion (dot): 0.0000211 rev/day2

B* drag term: 0.00093679 1/REarth

Two-line elements (TLE)

Creation date: July 6, 2025, 6:05 p.m.

Reference frame: TEME

Reference center: EARTH

Epoch: July 6, 2025, 9:59 a.m. UTC

TLE line 0: 0 FENGYUN 1C DEB

TLE line 1: 1 41831U 99025EYJ 25187.41657416 .00002110 00000-0 93679-3 0 9990

TLE line 2: 2 41831 98.7450 255.2365 0054029 324.6076 35.1521 14.23301352449927

Live tracking on map

Real-time ground track for satellite FENGYUN 1C DEB.

In-orbit conjunctions

A list of the most updated potential collisions computed for object FENGYUN 1C DEB.

Target Orbit TCA Probability of collision Miss distance Type
FENGYUN 1C DEB SSO 2025-06-01 01:11:54 0.0004841376 45.0 (m) DEBRIS
DIAMANT R/B LEO 2025-03-02 03:02:40 0.00046396 257.0 (m) ROCKET BODY

Associated space launch

Chinese polar orbiting meteorological satellite

FENGYUN 1C DEB was lifted into orbit during the mission ‘Long March 4B | Feng Yun 1C’, on board a Long March 4B space rocket.

The launch took place on May 10, 1999, 1:33 a.m. from Launch Complex 7.

For more information about the launch, click the button.

Launch to space Long March 4B | Feng Yun 1C
Long March 4B | Feng Yun 1C

Agency: N/A

Status: Launch Successful

Launch date: May 10, 1999, 1:33 a.m. UTC

Rocket: Long March 4B

Launch pad: Launch Complex 7

Location: Taiyuan Satellite Launch Center, People's Republic of China

...

Latest news about this satellite

There are no fresh news available about this satellite. Check back as we update our databases every day.


Newsletter sign-up

Weekly statistics, charts and insights to help you stay on top of the space industry.